Morganton, NC

6:39 PM EST on December 18, 2017 (GMT -0500)
Morganton-Lenoir

Weather History for KMRN - January, 2013

Change the Weather History Date:

Saturday, January 12, 2013

  Actual Average (KHKY) Record (KHKY)
Temperature  
Mean Temperature 57 °F -  
Max Temperature 67 °F 46 °F 69 °F (2017)
Min Temperature 47 °F 26 °F 8 °F (1981)
Degree Days  
Heating Degree Days 8    
Growing Degree Days 7 (Base 50)    
Moisture  
Dew Point 54 °F    
Average Humidity 96    
Maximum Humidity 100    
Minimum Humidity 74    
Precipitation  
Precipitation 0.00 in - - ()
Sea Level Pressure  
Sea Level Pressure 30.17 in    
Wind  
Wind Speed 0 mph (North)    
Max Wind Speed 0 mph    
Max Gust Speed -    
Visibility 4 miles    
Events Fog , Rain    
Averages and records for this station are not official NWS values.
T = Trace of Precipitation, MM = Missing Value Source: NWS Daily Summary

Daily Weather History Graph

Daily Weather History Graph

Search for Another Location

Airport or City:

Trip Planner

Search our weather history database for the weather conditions in past years. The results will help you decide how hot, cold, wet, or windy it might be!

Date:

Astronomy

Jan. 12, 2013 Rise Set
Actual Time 7:36 AM EST 5:33 PM EST
Civil Twilight 7:08 AM EST 6:01 PM EST
Nautical Twilight 6:37 AM EST 6:33 PM EST
Astronomical Twilight 6:06 AM EST 7:03 PM EST
Moon 7:57 AM EST (1/12) 6:56 PM EST (1/12)
Length of Visible Light 10h 52m
Length of Day
9h 57m
New Moon, 1% of the Moon is Illuminated
Jan 12
New Moon
Jan 18
First Quarter
Jan 26
Full
Feb 3
Last Quarter
Feb 10
New

Hourly Weather History & Observations

Time (EST) Temp. Dew Point Humidity Pressure Visibility Wind Dir Wind Speed Gust Speed Precip Events Conditions
12:15 AM 47.7 °F 47.7 °F 100% 30.20 in 2.5 mi Calm Calm - N/A   Overcast
12:35 AM 47.7 °F 47.7 °F 100% 30.20 in 2.5 mi Calm Calm - N/A   Overcast
1:15 AM 47.7 °F 47.7 °F 100% 30.19 in 4.0 mi Calm Calm - N/A   Overcast
1:35 AM 47.8 °F 47.8 °F 100% 30.18 in 3.0 mi Calm Calm - N/A   Overcast
1:55 AM 47.8 °F 47.8 °F 100% 30.18 in 2.5 mi Calm Calm - N/A   Overcast
2:15 AM 47.8 °F 47.8 °F 100% 30.19 in 3.0 mi Calm Calm - N/A   Overcast
2:55 AM 48.0 °F 48.0 °F 100% 30.19 in 2.5 mi Calm Calm - N/A   Overcast
3:15 AM 48.2 °F 48.2 °F 100% 30.18 in 1.5 mi Calm Calm - N/A   Overcast
3:35 AM 48.2 °F 48.2 °F 100% 30.17 in 0.5 mi Calm Calm - N/A Fog Fog
3:55 AM 48.2 °F 48.2 °F 100% 30.16 in 0.2 mi Calm Calm - N/A Fog Fog
4:15 AM 48.2 °F 48.2 °F 100% 30.16 in 0.2 mi Calm Calm - N/A Fog Fog
4:35 AM 48.2 °F 48.2 °F 100% 30.15 in 0.2 mi Calm Calm - N/A Fog Fog
4:55 AM 48.2 °F 48.2 °F 100% 30.16 in 0.2 mi Calm Calm - N/A Fog Fog
5:15 AM 48.4 °F 48.4 °F 100% 30.15 in 0.2 mi Calm Calm - N/A Fog Fog
5:35 AM 48.2 °F 48.2 °F 100% 30.15 in 0.2 mi Calm Calm - N/A Fog Fog
5:55 AM 48.4 °F 48.4 °F 100% 30.16 in 0.2 mi Calm Calm - N/A Fog Fog
6:15 AM 48.4 °F 48.4 °F 100% 30.16 in 0.2 mi Calm Calm - N/A Fog Fog
6:35 AM 48.6 °F 48.6 °F 100% 30.17 in 0.2 mi Calm Calm - N/A Fog Fog
6:55 AM 48.6 °F 48.6 °F 100% 30.17 in 0.2 mi Calm Calm - N/A Fog Fog
7:15 AM 48.4 °F 48.4 °F 100% 30.18 in 0.2 mi Calm Calm - N/A Fog Fog
7:35 AM 48.7 °F 48.7 °F 100% 30.18 in 0.2 mi Calm Calm - N/A Fog Fog
7:55 AM 49.3 °F 49.3 °F 100% 30.19 in 0.2 mi Calm Calm - N/A Fog Fog
8:15 AM 50.2 °F 50.2 °F 100% 30.19 in 0.2 mi Calm Calm - N/A Fog Fog
8:35 AM 50.5 °F 50.5 °F 100% 30.20 in 0.5 mi Calm Calm - N/A Fog Fog
8:55 AM 51.3 °F 51.3 °F 100% 30.20 in 0.2 mi Calm Calm - N/A Fog Fog
9:15 AM 51.8 °F 51.8 °F 100% 30.20 in 0.5 mi Calm Calm - N/A Fog Fog
9:35 AM 52.3 °F 52.3 °F 100% 30.20 in 3.0 mi Calm Calm - N/A   Overcast
9:55 AM 53.2 °F 53.2 °F 100% 30.20 in 7.0 mi Calm Calm - N/A   Overcast
10:15 AM 53.6 °F 53.6 °F 100% 30.21 in 5.0 mi Calm Calm - N/A   Overcast
10:35 AM 54.0 °F 54.0 °F 100% 30.22 in 4.0 mi Calm Calm - N/A   Overcast
10:55 AM 54.9 °F 54.9 °F 100% 30.21 in 5.0 mi Calm Calm - N/A   Overcast
11:15 AM 55.6 °F 55.6 °F 100% 30.20 in 10.0 mi Calm Calm - N/A   Overcast
11:35 AM 56.1 °F 56.1 °F 100% 30.20 in 10.0 mi Calm Calm - N/A   Overcast
11:55 AM 57.0 °F 57.0 °F 100% 30.18 in 10.0 mi Calm Calm - N/A Rain Light Rain
12:15 PM 57.7 °F 57.7 °F 100% 30.18 in 10.0 mi Calm Calm - N/A   Mostly Cloudy
1:15 PM 62.6 °F 58.1 °F 85% 30.16 in 10.0 mi Calm Calm - N/A   Mostly Cloudy
1:35 PM 64.4 °F 58.3 °F 80% 30.16 in 10.0 mi Calm Calm - N/A   Scattered Clouds
1:55 PM 64.8 °F 58.1 °F 79% 30.16 in 10.0 mi Calm Calm - N/A   Mostly Cloudy
2:35 PM 66.0 °F 58.3 °F 76% 30.16 in 10.0 mi Calm Calm - N/A   Mostly Cloudy
2:55 PM 66.0 °F 58.8 °F 78% 30.16 in 10.0 mi Calm Calm - N/A   Mostly Cloudy
3:15 PM 67.1 °F 58.6 °F 74% 30.16 in 10.0 mi Calm Calm - N/A   Mostly Cloudy
3:35 PM 66.2 °F 58.8 °F 77% 30.16 in 10.0 mi Calm Calm - N/A   Mostly Cloudy
3:55 PM 66.6 °F 59.2 °F 77% 30.16 in 10.0 mi Calm Calm - N/A   Scattered Clouds
4:15 PM 65.8 °F 59.2 °F 79% 30.16 in 10.0 mi Calm Calm - N/A   Clear
4:35 PM 65.3 °F 59.2 °F 81% 30.16 in 10.0 mi Calm Calm - N/A   Scattered Clouds
4:55 PM 65.3 °F 59.5 °F 82% 30.16 in 10.0 mi Calm Calm - N/A   Scattered Clouds
5:15 PM 64.8 °F 59.5 °F 83% 30.16 in 10.0 mi Calm Calm - N/A   Clear
5:35 PM 62.4 °F 59.4 °F 90% 30.16 in 10.0 mi Calm Calm - N/A   Scattered Clouds
5:55 PM 61.0 °F 59.9 °F 96% 30.15 in 10.0 mi Calm Calm - N/A   Scattered Clouds
6:15 PM 60.1 °F 59.4 °F 97% 30.15 in 10.0 mi Calm Calm - N/A   Clear
6:35 PM 60.1 °F 58.6 °F 95% 30.16 in 10.0 mi Calm Calm - N/A   Clear
6:55 PM 60.3 °F 58.6 °F 94% 30.16 in 10.0 mi Calm Calm - N/A   Clear
7:15 PM 59.0 °F 58.1 °F 97% 30.15 in 7.0 mi Calm Calm - N/A   Clear
7:35 PM 60.1 °F 59.2 °F 97% 30.15 in 10.0 mi Calm Calm - N/A   Clear
7:55 PM 59.5 °F 58.5 °F 96% 30.16 in 7.0 mi Calm Calm - N/A   Clear
8:15 PM 56.8 °F 56.5 °F 99% 30.16 in 1.5 mi Calm Calm - N/A   Mist
8:35 PM 56.5 °F 56.5 °F 100% 30.16 in 3.0 mi Calm Calm - N/A   Clear
8:55 PM 57.6 °F 57.6 °F 100% 30.16 in 3.0 mi Calm Calm - N/A   Clear
9:15 PM 56.8 °F 56.8 °F 100% 30.15 in 2.0 mi Calm Calm - N/A   Clear
9:35 PM 57.4 °F 57.4 °F 100% 30.15 in 1.0 mi Calm Calm - N/A   Mist
9:55 PM 54.7 °F 54.7 °F 100% 30.15 in 0.2 mi Calm Calm - N/A Fog Fog
10:15 PM 53.8 °F 53.8 °F 100% 30.14 in 0.2 mi Calm Calm - N/A Fog Fog
10:35 PM 52.3 °F 52.3 °F 100% 30.14 in 0.8 mi Calm Calm - N/A   Mist
10:55 PM 52.5 °F 52.5 °F 100% 30.14 in 1.8 mi Calm Calm - N/A   Mostly Cloudy
11:35 PM 54.7 °F 54.7 °F 100% 30.15 in 1.0 mi Calm Calm - N/A   Overcast
11:55 PM 54.9 °F 54.9 °F 100% 30.14 in 1.2 mi Calm Calm - N/A   Overcast